Regional Weather Roundup
Issued by NWS

Home | Current Version | Previous Version | Text Only | Print | Product List | Glossary Off
Versions: 1 2 3 4 5 6 7 8 9 10 11 12 13 14 15 16 17 18 19 20 21 22 23 24 25 26 27 28 29 30 31 32 33 34 35 36 37 38 39 40 41 42 43 44 45 46 47 48 49 50

000
ASUS43 KLOT 250404
RWRIL

ILLINOIS REGIONAL WEATHER ROUNDUP
NATIONAL WEATHER SERVICE CHICAGO/ROMEOVILLE IL
1100 PM CDT SAT JUN 24 2017

NOTE: "FAIR" INDICATES FEW OR NO CLOUDS BELOW 12,000 FEET WITH NO
SIGNIFICANT WEATHER AND/OR OBSTRUCTIONS TO VISIBILITY.

* THESE STATIONS ARE NOT UNDER NWS QUALITY CONTROL. THEY ALSO MAY NOT
  REPORT WEATHER SUCH AS PRECIPITATION OR FOG.

ILZ001-002-007-009-015-016-024-250500-
NORTHWEST ILLINOIS

CITY           SKY/WX    TMP DP  RH WIND       PRES   REMARKS
MOLINE         PTCLDY    64  48  56 N7        30.10R
STERLING*      MOCLDY    58  53  84 NW6       30.10R
SAVANNA*       MOCLDY    57  54  89 CALM      30.10R
$$

ILZ003-004-008-010-011-017-018-250500-
NORTH CENTRAL ILLINOIS

CITY           SKY/WX    TMP DP  RH WIND       PRES   REMARKS
ROCKFORD       MOCLDY    56  53  90 W3        30.09R
FREEPORT*      MOCLDY    54  53  96 CALM      30.11S
ROCHELLE*      PTCLDY    56  52  88 NW3       30.09R
DE KALB*       MOCLDY    55  52  90 W6        30.08R
PERU*          PTCLDY    61  47  61 NW5       30.10R
$$

ILZ005-006-012>014-019>023-250500-
NORTHEAST ILLINOIS

CITY           SKY/WX    TMP DP  RH WIND       PRES   REMARKS
CHICAGO-OHARE  LGT RAIN  63  47  55 W10       30.06R
CHICAGO-MIDWAY PTCLDY    64  46  52 W3        30.05F
AURORA         PTCLDY    59  51  75 S3        30.07F
LANSING*       PTCLDY    56  47  72 CALM      30.07S
JOLIET*        LGT RAIN  64  50  61 CALM      30.09R
WAUKEGAN       PTCLDY    56  50  80 CALM      30.03F
DUPAGE AIRPORT MOCLDY    59  52  77 NW7       30.06S
WHEELING       MOCLDY    62  49  62 NW6       30.06F
MORRIS*        CLOUDY    62  49  62 CALM      30.07R
ROMEOVILLE*    CLOUDY    62  46  55 NW8       30.09R
NORTHERLY ISL    N/A     66  44  45 CALM        N/A
$$

LMZ740>746-250500-
SOUTHERN LAKE MICHIGAN

STATION/POSITION SKY/WX   TEMP    WIND        PRES    VSBY  WAVE
                          AIR SEA DIR/SP/G                  HT/PER
                          (F)     (DEG/KT/KT) (MB)    (MI)  (FT/S)
SOUTHERN BUOY              63 62  310/ 17/ 19 1016.2          2/ 4
WILMETTE HARBOR            63 65  300/  8/ 10   N/A           2/ 3
HARRISON CRIB              66     290/  6/  7   N/A
BURNHAM HARBOR             65                   N/A
CALUMET HARBOR             67     260/  2/  4 1017.4R
BURNS HARBOR               68     260/  7/  8 1018.3S
MICHIGAN CITY              67     270/  7/  8   N/A
MICHIGAN CITY 6N           67 67  280/  6/  8   N/A           3/ 4
ST. JOSEPH                 67 68  300/ 10/ 12 1017.2F         3/ 4
$$

ILZ025>027-034>036-040-047-049-050-058-095>099-250500-
WEST-CENTRAL ILLINOIS

CITY           SKY/WX    TMP DP  RH WIND       PRES   REMARKS
QUINCY         CLEAR     60  51  72 S7        30.13S
GALESBURG*     CLEAR     60  48  65 SW7       30.10R
MACOMB*        CLEAR     60  48  65 SW8       30.12S
JACKSONVILLE*  PTCLDY    60  46  59 S6        30.14S
PITTSFIELD*    PTCLDY    64  49  59 S5        30.16S
$$

ILZ028>032-037-038-041>044-048-051>054-059>061-250500-
CENTRAL ILLINOIS

CITY           SKY/WX    TMP DP  RH WIND       PRES   REMARKS
PONTIAC        MOCLDY    62  51  69 S5        30.10R
BLOOMINGTON    CLEAR     57  46  66 SW8       30.12S
DECATUR        CLEAR     59  48  67 SW6       30.14R
PEORIA         CLEAR     61  48  62 SW7       30.09S
LACON*         CLOUDY    64  49  59 W3        30.08R
LINCOLN*       CLEAR     60  49  67 CALM      30.12S
SPRINGFIELD    CLEAR     63  50  62 SW6       30.14R
TAYLORVILLE    CLEAR     56  51  82 SW5       30.15S
$$

ILZ033-039-045-046-055>057-062-063-250500-
EAST-CENTRAL ILLINOIS

CITY           SKY/WX    TMP DP  RH WIND       PRES   REMARKS
CHAMPAIGN      CLEAR     57  47  69 S8        30.13S
RANTOUL*       CLEAR     58  49  72 SW5       30.12S
MATTOON        CLEAR     60  53  77 S3        30.14S
PARIS*         PTCLDY    55  53  94 SW5       30.15S
$$

ILZ079-100>102-250500-
SOUTHWEST ILLINOIS

CITY           SKY/WX    TMP DP  RH WIND       PRES   REMARKS
ALTON          PTCLDY    61  51  70 CALM      30.18S
BELLEVILLE     CLEAR     62  50  66 CALM      30.19S
CAHOKIA*       CLEAR     63  46  54 CALM      30.18R
SPARTA*        CLEAR     64  49  58 CALM      30.21R
$$

ILZ064>066-069>071-074>076-080>082-084>086-088>090-092>094-250500-
SOUTH-CENTRAL ILLINOIS

CITY           SKY/WX    TMP DP  RH WIND       PRES   REMARKS
CARBONDALE     CLEAR     62  60  93 CALM      30.19R
CAIRO*         CLOUDY    64  62  96 CALM      30.18R
EFFINGHAM*     CLEAR     59  54  83 CALM      30.18S
MARION         CLEAR     61  59  94 CALM      30.19S
MT. VERNON     CLEAR     59  56  89 CALM      30.18R
CENTRALIA*     CLEAR     59  55  87 CALM      30.17S
SALEM*         CLEAR     61  55  79 CALM      30.18S
METROPOLIS*    PTCLDY    62  61  95 CALM      30.18S
$$

ILZ067-068-072-073-078-083-087-091-250500-
SOUTHEAST ILLINOIS

CITY           SKY/WX    TMP DP  RH WIND       PRES   REMARKS
LAWRENCEVILLE  CLEAR     64  56  75 W3        30.16R
FLORA*         CLEAR     61  53  74 SW5       30.18R
FAIRFIELD*     PTCLDY    60  58  91 CALM      30.17S
HARRISBURG*    CLEAR     62  57  83 CALM      30.18R
ROBINSON*      CLEAR     59  54  84 W3        30.16S
CARMI*         CLEAR     62  59  91 CALM      30.17R
$$

ABBREVIATIONS USED IN REMARKS
   TC - TEMPERATURE IN CELSIUS
  WCI - WIND CHILL INDEX
   HX - HEAT INDEX
  VSB - VISIBILITY
$$





USA.gov is the U.S. government's official web portal to all federal, state and local government web resources and services.